www.pogodaiklimat.ru

ПОГОДА в Туэнтинайн-Палмсе, CA

  • Прогноз погоды в Туэнтинайн-Палмсе
  • Монитор погоды в Туэнтинайн-Палмсе
  • Климат в Туэнтинайн-Палмсе

АРХИВ ПОГОДЫ в Туэнтинайн-Палмсе

Время (UTC), дата Ветер
(напр.,м/с)
 
Видим.   Явления Облачность Т
(С)
Тd
(С)
f
(%)
Тe
(С)
Тes
(С)
Комфортность

P
(гПа)

Po
(гПа)
Тmin
(С)
Tmax
(С)
R
(мм)
SD
(см)
08:56 20.03 З  16 км    ясно  +16.1  -4.4  24  +15  +15    1011.6  941.3         
09:56 20.03 З  16 км    8/0 3300 м
[средняя] 
+14.4  -0.6  36  +13  +13    1011.6  941.3         
10:56 20.03 СЗ  16 км    10/0 3300 м
[средняя] 
+13.9  -0.6  37  +13  +13    1011.9  941.7  +13.3  +18.3     
11:56 20.03 З  16 км    10/0 3000 м
[средняя] 
+13.9  -1.1  36  +12  +12    1012.7  942.3         
12:56 20.03 З  16 км    8/0 2700 м
[средняя] 
+13.3  +0.6  42  +12  +12    1012.8  942.3         
13:56 20.03 З  16 км    10/0 2400 м
[средняя] 
+13.9  -1.7  34  +13  +13    1014.1  943.2         
14:56 20.03 СЗ  16 км    10/0 2400 м
[средняя] 
+13.9  0.0  38  +13  +14    1014.8  943.9         
15:56 20.03 З  16 км    10/0 2400 м
[средняя] 
+14.4  +2.2  44  +13  +14    992.9  944.5         
16:56 20.03 СЗ  16 км    10/2 1950 м
[средняя] 
+14.4  +4.4  51  +13  +15    1016.0  944.8  +13.3  +14.4     
17:56 20.03 СВ  16 км    5/0 2400 м
[средняя] 
+16.7  +2.2  38  +16  +21    992.8  944.2         
18:56 20.03 В  16 км    ясно  +18.3  +1.1  31  +19  +32  опасность
простуды 
1014.3  943.5         
19:56 20.03 СВ  16 км    8/0 2550 м
[средняя] 
+19.4  0.0  27  +20  +25    991.1  942.6         
20:56 20.03 ЮВ  16 км    2/0 3300 м
[средняя] 
+19.4  0.0  27  +19  +27    1012.4  941.7         
21:56 20.03 Ю  4
{8} 
16 км  слабый дождь  10/0 2100 м
[средняя] 
+18.3  +2.2  34  +18  +20    989.9  941.7         
22:56 20.03 Ю  16 км    10/0 2100 м
[средняя] 
+18.9  +0.6  29  +19  +21    989.9  941.7  +14.4  +20.0     
23:20 20.03 ЮЗ  10  16 км    10/0 2250 м
[средняя] 
+17.2  +0.6  33  +16  +16      941.7         
23:51 20.03 СЗ  16 км  гроза  8/2 1800 м
[средняя] 
+16.0  +3.0  42  +14  +14      942.3         
23:56 20.03 СЗ  10  16 км  гроза  8/0 2250 м
[средняя] 
+15.0  +3.9  47  +13  +13    1013.3  942.3         
00:03 21.03 СЗ  11
{13} 
16 км  гроза  8/0 2400 м
[средняя] 
+14.4  +3.9  49  +12  +12      942.3         
00:38 21.03 СЗ  16 км    10/0 2250 м
[средняя] 
+13.9  +3.3  49  +12  +12      943.2         
00:56 21.03 СЗ  16 км  слабый дождь  10/8 1650 м
[средняя] 
+13.3  +4.4  55  +11  +11    1014.5  943.2         
01:56 21.03 СЗ  16 км    10/0 2550 м
[средняя] 
+12.8  +4.4  57  +10  +10    1014.8  943.5      0.3   
02:56 21.03 СЗ  16 км    8/0 3000 м
[средняя] 
+12.2  +4.4  59  +11  +11    1015.1  943.9         
03:56 21.03 СЗ  16 км    ясно  +11.7  +2.8  54  +10  +10    1015.6  944.5         
04:56 21.03 СЗ  16 км    ясно  +11.1  +3.3  59  +9  +9    1015.6  944.2  +10.6  +19.4  0.3   
05:56 21.03 З  16 км    ясно  +10.0  +3.3  63  +8  +8    1015.6  944.2         
06:56 21.03 З  16 км    ясно  +8.9  +2.8  66  +6  +6    1015.4  944.2         
07:56 21.03 З  16 км    ясно  +8.9  +2.2  63  +6  +6    1015.8  944.5         
08:56 21.03 СЗ  16 км    ясно  +6.7  +2.2  73  +4  +4    1015.9  944.5         
09:56 21.03 С  16 км    ясно  +6.1  +1.7  73  +4  +4    1016.0  944.5         
10:56 21.03 С  16 км    ясно  +7.2  +1.7  68  +5  +5    1015.9  944.5  +6.1  +11.1     
11:56 21.03 С  16 км    ясно  +6.1  +1.7  73  +3  +3    1016.8  945.1         
12:56 21.03 С  16 км    ясно  +6.1  +1.7  73  +4  +4    1016.9  945.1         
13:56 21.03 СВ  16 км    ясно  +7.8  +1.7  65  +7  +7    1017.4  945.7         
14:56 21.03   16 км    ясно  +8.9  +2.2  63  +8  +11    1017.7  945.7         
15:22 21.03   16 км    2/2 30 м  +11.1  +1.7  52  +11  +16      946.1         
15:56 21.03   16 км    ясно  +12.8  +0.6  43  +13  +19    1017.5  946.1         
16:56 21.03 нст  16 км    ясно  +14.4  0.0  37  +14  +22    1017.4  945.7  +5.6  +14.4     
17:56 21.03 нст  16 км    ясно  +15.6  -0.6  33  +15  +27  опасность
простуды 
1017.3  945.7         
18:56 21.03   16 км    10/0 2250 м
[средняя] 
+15.0  -2.2  31  +15  +21    1017.1  945.4         
19:56 21.03 нст  16 км    2/2 810 м
[средняя] 
+16.7  0.0  32  +17  +30  опасность
простуды 
1016.2  944.8         
20:56 21.03 ЮЗ  7
{11} 
16 км  слабый дождь  10/0 2100 м
[средняя] 
+15.0  +1.7  41  +13  +14    1016.2  944.8         
21:08 21.03 Ю  5
{11} 
16 км  слабый дождь  10/2 930 м
[средняя] 
+13.9  +2.2  45  +12  +13      944.5         
21:56 21.03 ЮЗ  9
{11} 
16 км    10/0 2250 м
[средняя] 
+13.9  +2.8  47  +11  +11    1016.1  944.2         
22:04 21.03 ЮЗ  9
{13} 
16 км    10/0 2400 м
[средняя] 
+13.9  +2.8  47  +11  +11      944.5         
22:56 21.03 ЮЗ  16 км    5/0 3300 м
[средняя] 
+15.6  +1.7  39  +14  +14    1015.8  944.2  +13.3  +16.7     
23:56 21.03 ЮЗ  16 км    ясно  +14.4  +3.3  47  +13  +13    1016.1  944.5         
00:56 22.03 З  16 км    ясно  +12.8  +2.8  51  +11  +11    1016.7  944.8         

 

Местоположение метеостанции Marine Corps Air-Ground Combat Center: широта 34.2944 долгота -116.1450 высота над уровнем моря 626 м.

В архиве по умолчанию представлена погода в Туэнтинайн-Палмсе за последние 1-2 суток. Обновление информации о фактической погоде в базе происходит ежечасно! Архивные данные за месяц целиком и за предыдущие месяцы Вы можете получить, выбрав интересующий диапазон дат из раскрывающегося списка и нажав кнопку "Ввод!".

Внимание! Архив погоды МЕТАР в базе сайта хранится не более 60 дней. Нет смысла пытаться выбрать более раннюю дату.

Внимание! Время в таблицах - всемирное. Для получения местного времени необходимо прибавить поправку, которая в Туэнтинайн-Палмсе равна -8 ч.

Ветер - указаны скорость ветра в м/с и направление, откуда дует ветер: С - северный, СВ - северо-восточный, В - восточный, ЮВ - юго-восточный, Ю - южный, ЮЗ - юго-западный, З - западный, СЗ - северо-западный.
Видимость - горизонтальная дальность видимости в метрах или километрах. При видимости от 1 до 10 км при отсутствии осадков обычно наблюдается дымка, при ухудшении видимости до 1 км и менее - туман. В сухую погоду видимость может ухудшаться дымом, пылью или мглою.
Атмосферные явления - указаны явления, наблюдавшиеся в указанный момент времени.
Облачность - указаны через наклонную черту верхняя и нижняя облачность в баллах и высота нижней границы облаков в метрах. Внимание: облачность, как и прочие метеорологические величины в США измеряются автоматическими метеостанциями. Указанные значения в баллах носят условный характер и показывают процент времени, в течение которого, в среднем, лазерный луч высотомера отражался от облаков обратно.
T - Температура воздуха - температура, измеренная на высоте 2 м над землей.
Td - Температура точки росы - температура, при понижении до которой содержащийся в воздухе водяной пар достигнет насыщения.
f - Относительная влажность воздуха - влажноcть воздуха, измеренная на высоте 2 м над землей.
Te - Эффективная температура - температура, которую ощущает одетый по сезону человек в тени. Характеристика душности погоды. При расчете учитывается влияние влажности воздуха и скорости ветра на теплоощущения человека.
Tes - Эффективная температура на солнце - температура, которую ощущает человек, с поправкой на солнечный нагрев. Характеристика знойности погоды. Зависит от высоты солнца над горизонтом, облачности и скорости ветра. Ночью, в пасмурную погоду, а также при ветре 12 м/с и более поправка равна нулю.
P - Атмосферное давление - приведенное к уровню моря атмосферное давление.
Po - Атмосферное давление - измеренное на уровне метеостанции атмосферное давление.
Tmin - Минимальная температура - минимум температуры воздуха на высоте 2 м над землей.
Tmax - Максимальная температура - максимум температуры воздуха на высоте 2 м над землей.
R - Количество осадков - Количество выпавших осадков за 3 или 6 часов, мм.
SD - Снежный покров - Высота снежного покрова, см.